ロニオス彗星

C/2007 F1 ( LONEOS )

English version
Home page
Updated on February 27, 2017

---------------------------------------------------------------------

・ プロフィール

発見日 2007年3月19日
発見光度 19.5等
発見者 Lowell Observatory Near-Earth Object Search

・ 写真集

・ 軌道要素

Epoch 2007 Oct. 27.0 TT = JDT 2454400.5
T 2007 Oct. 28.75931 TT                                 MPC
q   0.4024016            (2000.0)            P               Q
z  -0.0001606      Peri.  153.70617     +0.91375101     +0.39076249
 +/-0.0000417      Node   172.88838     -0.08276112     -0.08891845
e   1.0000646      Incl.  116.08506     +0.39775581     -0.91618677
From 189 observations 2007 Mar. 19-Nov. 11, mean residual 0".83.  Non-
   gravitational parameters A1 = +1.44 +/- 0.17, A2 = +0.5613 +/- 0.0779.

・ 星図

・ 光度変化

        m1 =  8.7 + 5 logΔ + 14.0 log r  [   ,-38]  (              〜2007年 9月20日)
        m1 =  8.7 + 5 logΔ + 10.0 log r  [-38,-17]  (2007年 9月20日〜2007年10月11日)
        m1 =  7.0 + 5 logΔ +  2.5 log r  [-17,  0]  (2007年10月11日〜2007年10月28日)
        m1 = 10.0 + 5 logΔ + 10.0 log r  [  0, 38]  (2007年10月28日〜2007年12月 5日)
        m1 = 10   + 5 logΔ + 25   log r  [ 38,   ]  (2007年12月 5日〜              )

---------------------------------------------------------------------

軌道要素はM.P.E.C. 2007-V97に掲載されたものです。
星図は StellaNavigator Ver.2.0 for Windows (アストロアーツ 編著 / アスキー出版局刊) で作成したものです。
光度グラフはComet for Windowsで作成したものです。

---------------------------------------------------------------------

Copyright(C) Seiichi Yoshida (comet@aerith.net). All rights reserved.